| time (UTC) | temp C | wind direction | speed KPH | gust KPH | rain 1hr cm | rain 24hr cm | rain mn cm | humidity % | barometer mb |
| 20260505180015 | 27 | 192 | 8.0 | 17.7 | 0.00 | 0.00 | 0.00 | 39 | 1009.0 |
| 20260505175015 | 27 | 140 | 8.0 | 22.5 | 0.00 | 0.00 | 0.00 | 39 | 1009.3 |
| 20260505174015 | 27 | 187 | 8.0 | 20.9 | 0.00 | 0.00 | 0.00 | 38 | 1009.4 |
| 20260505173015 | 27 | 219 | 9.7 | 30.6 | 0.00 | 0.00 | 0.00 | 39 | 1009.4 |
| 20260505172015 | 27 | 182 | 8.0 | 22.5 | 0.00 | 0.00 | 0.00 | 37 | 1009.4 |
| 20260505171014 | 27 | 205 | 16.1 | 33.8 | 0.00 | 0.00 | 0.00 | 36 | 1009.4 |
| 20260505170016 | 27 | 207 | 12.9 | 25.7 | 0.00 | 0.00 | 0.00 | 37 | 1009.8 |
| 20260505165016 | 27 | 238 | 14.5 | 30.6 | 0.00 | 0.00 | 0.00 | 39 | 1009.8 |
| 20260505164013 | 27 | 248 | 14.5 | 30.6 | 0.00 | 0.00 | 0.00 | 39 | 1010.0 |
| 20260505163014 | 27 | 267 | 12.9 | 35.4 | 0.00 | 0.00 | 0.00 | 39 | 1010.3 |
| 20260505162013 | 27 | 255 | 12.9 | 29.0 | 0.00 | 0.00 | 0.00 | 41 | 1010.4 |
| 20260505161014 | 27 | 233 | 11.3 | 25.7 | 0.00 | 0.00 | 0.00 | 41 | 1010.6 |
| 20260505153015 | 27 | 234 | 11.3 | 25.7 | 0.00 | 0.00 | 0.00 | 41 | 1010.5 |
| 20260505152014 | 26 | 254 | 8.0 | 22.5 | 0.00 | 0.00 | 0.00 | 45 | 1010.5 |
| 20260505151013 | 26 | 258 | 6.4 | 19.3 | 0.00 | 0.00 | 0.00 | 45 | 1010.5 |
| 20260505125014 | 18 | 254 | 0.0 | 4.8 | 0.00 | 0.00 | 0.00 | 67 | 1011.7 |
| 20260505124013 | 17 | 267 | 1.6 | 4.8 | 0.00 | 0.00 | 0.00 | 69 | 1011.7 |
| 20260505123014 | 17 | 248 | 3.2 | 9.7 | 0.00 | 0.00 | 0.00 | 71 | 1011.8 |
| 20260505122014 | 16 | 227 | 0.0 | 3.2 | 0.00 | 0.00 | 0.00 | 75 | 1011.8 |
| 20260505121014 | 15 | 204 | 0.0 | 0.0 | 0.00 | 0.00 | 0.00 | 78 | 1011.6 |
| 20260505120014 | 14 | 204 | 0.0 | 0.0 | 0.00 | 0.00 | 0.00 | 81 | 1011.7 |
| 20260505115014 | 13 | 204 | 0.0 | 0.0 | 0.00 | 0.00 | 0.00 | 83 | 1011.6 |
| 20260505114014 | 12 | 204 | 0.0 | 0.0 | 0.00 | 0.00 | 0.00 | 85 | 1011.5 |
| 20260505113013 | 12 | 204 | 0.0 | 0.0 | 0.00 | 0.00 | 0.00 | 85 | 1011.5 |
| 20260505112014 | 11 | 204 | 0.0 | 0.0 | 0.00 | 0.00 | 0.00 | 88 | 1011.4 |
| 20260505111013 | 11 | 204 | 0.0 | 0.0 | 0.00 | 0.00 | 0.00 | 88 | 1011.4 |
| 20260505102014 | 10 | 204 | 0.0 | 0.0 | 0.00 | 0.00 | 0.00 | 86 | 1011.1 |
| 20260505101014 | 10 | 204 | 0.0 | 0.0 | 0.00 | 0.00 | 0.00 | 85 | 1011.0 |
| 20260505100014 | 10 | 204 | 0.0 | 0.0 | 0.00 | 0.00 | 0.00 | 85 | 1010.7 |
| 20260505095013 | 10 | 204 | 0.0 | 0.0 | 0.00 | 0.00 | 0.00 | 85 | 1010.6 |
| 20260505094013 | 10 | 204 | 0.0 | 0.0 | 0.00 | 0.00 | 0.00 | 85 | 1010.4 |
| 20260505093013 | 10 | 204 | 0.0 | 0.0 | 0.00 | 0.00 | 0.00 | 85 | 1010.4 |
| 20260505092013 | 10 | 204 | 0.0 | 0.0 | 0.00 | 0.00 | 0.00 | 84 | 1010.5 |
| 20260505091014 | 10 | 204 | 0.0 | 0.0 | 0.00 | 0.00 | 0.00 | 84 | 1010.4 |
| 20260505090014 | 11 | 204 | 0.0 | 0.0 | 0.00 | 0.00 | 0.00 | 84 | 1010.6 |
| 20260505085013 | 11 | 204 | 0.0 | 0.0 | 0.00 | 0.00 | 0.00 | 83 | 1010.4 |
| 20260505084014 | 11 | 204 | 0.0 | 0.0 | 0.00 | 0.00 | 0.00 | 83 | 1010.3 |
| 20260505083013 | 11 | 204 | 0.0 | 0.0 | 0.00 | 0.00 | 0.00 | 82 | 1010.3 |
| 20260505082014 | 11 | 204 | 0.0 | 0.0 | 0.00 | 0.00 | 0.00 | 82 | 1010.3 |
| 20260505081013 | 11 | 204 | 0.0 | 0.0 | 0.00 | 0.00 | 0.00 | 82 | 1010.2 |
| 20260505080014 | 12 | 204 | 0.0 | 0.0 | 0.00 | 0.00 | 0.00 | 81 | 1010.1 |
| 20260505075014 | 12 | 204 | 0.0 | 0.0 | 0.00 | 0.00 | 0.00 | 80 | 1010.0 |
| 20260505074013 | 12 | 204 | 0.0 | 0.0 | 0.00 | 0.00 | 0.00 | 80 | 1010.0 |
| 20260505073013 | 12 | 204 | 0.0 | 0.0 | 0.00 | 0.00 | 0.00 | 79 | 1009.9 |
| 20260505072013 | 13 | 204 | 0.0 | 0.0 | 0.00 | 0.00 | 0.00 | 78 | 1010.0 |
| 20260505071014 | 13 | 204 | 0.0 | 0.0 | 0.00 | 0.00 | 0.00 | 78 | 1009.9 |
| 20260505070013 | 13 | 204 | 0.0 | 0.0 | 0.00 | 0.00 | 0.00 | 77 | 1009.9 |
| 20260505065014 | 13 | 204 | 0.0 | 0.0 | 0.00 | 0.00 | 0.00 | 77 | 1010.0 |
| 20260505064014 | 13 | 204 | 0.0 | 0.0 | 0.00 | 0.00 | 0.00 | 76 | 1010.1 |
| 20260505063013 | 14 | 204 | 0.0 | 0.0 | 0.00 | 0.00 | 0.00 | 75 | 1010.1 |
| 20260505062013 | 14 | 204 | 0.0 | 0.0 | 0.00 | 0.00 | 0.00 | 75 | 1010.2 |
| 20260505061013 | 14 | 204 | 0.0 | 0.0 | 0.00 | 0.00 | 0.00 | 75 | 1010.2 |
| 20260505060014 | 14 | 204 | 0.0 | 0.0 | 0.00 | 0.00 | 0.00 | 75 | 1010.3 |
| 20260505055013 | 14 | 204 | 0.0 | 4.8 | 0.00 | 0.00 | 0.00 | 74 | 1010.2 |
| 20260505054013 | 14 | 195 | 0.0 | 3.2 | 0.00 | 0.00 | 0.00 | 74 | 1010.3 |
| 20260505053013 | 14 | 195 | 0.0 | 0.0 | 0.00 | 0.00 | 0.00 | 73 | 1010.3 |
| 20260505052013 | 15 | 195 | 0.0 | 0.0 | 0.00 | 0.00 | 0.00 | 72 | 1010.3 |
| 20260505051013 | 15 | 195 | 0.0 | 0.0 | 0.00 | 0.00 | 0.00 | 71 | 1010.3 |
| 20260505041015 | 15 | 195 | 0.0 | 0.0 | 0.00 | 0.00 | 0.00 | 68 | 1010.0 |
| 20260505040018 | 15 | 195 | 0.0 | 0.0 | 0.00 | 0.00 | 0.00 | 66 | 1009.8 |
| 20260505035015 | 15 | 195 | 0.0 | 0.0 | 0.00 | 0.00 | 0.00 | 65 | 1009.9 |
| 20260505034015 | 15 | 195 | 0.0 | 0.0 | 0.00 | 0.00 | 0.00 | 64 | 1010.1 |
| 20260505033015 | 16 | 195 | 0.0 | 0.0 | 0.00 | 0.00 | 0.00 | 63 | 1009.9 |
| 20260505032015 | 16 | 195 | 0.0 | 1.6 | 0.00 | 0.00 | 0.00 | 61 | 1009.8 |
| 20260505031016 | 17 | 195 | 0.0 | 1.6 | 0.00 | 0.00 | 0.00 | 58 | 1009.9 |
| 20260505030016 | 18 | 195 | 0.0 | 0.0 | 0.00 | 0.00 | 0.00 | 55 | 1009.9 |
| 20260505025015 | 18 | 195 | 0.0 | 3.2 | 0.00 | 0.00 | 0.00 | 55 | 1009.9 |
| 20260505024015 | 18 | 195 | 1.6 | 3.2 | 0.00 | 0.00 | 0.00 | 54 | 1009.8 |
| 20260505023016 | 18 | 196 | 1.6 | 4.8 | 0.00 | 0.00 | 0.00 | 54 | 1009.7 |
| 20260505022015 | 17 | 200 | 0.0 | 1.6 | 0.00 | 0.00 | 0.00 | 57 | 1009.7 |
| 20260505021015 | 17 | 200 | 0.0 | 6.4 | 0.00 | 0.00 | 0.00 | 58 | 1009.8 |
| 20260505020015 | 17 | 200 | 0.0 | 0.0 | 0.00 | 0.00 | 0.00 | 58 | 1009.8 |
| 20260505015016 | 18 | 200 | 0.0 | 0.0 | 0.00 | 0.00 | 0.00 | 57 | 1009.8 |
| 20260505014015 | 18 | 200 | 0.0 | 0.0 | 0.00 | 0.00 | 0.00 | 56 | 1009.7 |
| 20260505013016 | 18 | 200 | 0.0 | 0.0 | 0.00 | 0.00 | 0.00 | 55 | 1009.6 |
| 20260505012015 | 19 | 200 | 0.0 | 0.0 | 0.00 | 0.00 | 0.00 | 53 | 1009.5 |
| 20260505011015 | 19 | 200 | 0.0 | 0.0 | 0.00 | 0.00 | 0.00 | 51 | 1009.6 |
| 20260505010016 | 20 | 200 | 0.0 | 0.0 | 0.00 | 0.00 | 0.00 | 50 | 1009.6 |
| 20260505005015 | 20 | 200 | 0.0 | 0.0 | 0.00 | 0.00 | 0.00 | 49 | 1009.4 |
| 20260505004014 | 21 | 200 | 0.0 | 0.0 | 0.00 | 0.00 | 0.00 | 46 | 1009.2 |
| 20260505003014 | 21 | 200 | 0.0 | 0.0 | 0.00 | 0.00 | 0.00 | 46 | 1009.2 |
| 20260505002014 | 21 | 200 | 0.0 | 1.6 | 0.00 | 0.00 | 0.00 | 45 | 1009.1 |
| 20260505001014 | 21 | 200 | 1.6 | 9.7 | 0.00 | 0.00 | 0.00 | 44 | 1009.1 |
| 20260505000014 | 22 | 198 | 1.6 | 6.4 | 0.00 | 0.00 | 0.00 | 42 | 1009.0 |
| 20260504235014 | 22 | 205 | 1.6 | 9.7 | 0.00 | 0.00 | 0.00 | 42 | 1008.9 |
| 20260504234013 | 22 | 205 | 1.6 | 8.0 | 0.00 | 0.00 | 0.00 | 41 | 1008.9 |
| 20260504233013 | 22 | 184 | 3.2 | 9.7 | 0.00 | 0.00 | 0.00 | 41 | 1008.8 |
| 20260504232014 | 22 | 192 | 4.8 | 11.3 | 0.00 | 0.00 | 0.00 | 41 | 1008.9 |
| 20260504231014 | 23 | 219 | 4.8 | 12.9 | 0.00 | 0.00 | 0.00 | 41 | 1008.8 |
| 20260504230014 | 23 | 180 | 8.0 | 16.1 | 0.00 | 0.00 | 0.00 | 39 | 1008.9 |
| 20260504225014 | 23 | 210 | 4.8 | 16.1 | 0.00 | 0.00 | 0.00 | 40 | 1008.8 |
| 20260504224014 | 23 | 181 | 6.4 | 19.3 | 0.00 | 0.00 | 0.00 | 40 | 1008.8 |
| 20260504223013 | 23 | 184 | 6.4 | 16.1 | 0.00 | 0.00 | 0.00 | 40 | 1008.8 |
| 20260504222014 | 23 | 182 | 6.4 | 14.5 | 0.00 | 0.00 | 0.00 | 40 | 1008.9 |
| 20260504221014 | 23 | 183 | 9.7 | 24.1 | 0.00 | 0.00 | 0.00 | 39 | 1008.9 |
| 20260504220015 | 23 | 253 | 6.4 | 16.1 | 0.00 | 0.00 | 0.00 | 40 | 1009.0 |
| 20260504215015 | 23 | 167 | 6.4 | 12.9 | 0.00 | 0.00 | 0.00 | 40 | 1008.8 |
| 20260504214013 | 23 | 227 | 8.0 | 12.9 | 0.00 | 0.00 | 0.00 | 39 | 1008.8 |
| 20260504213014 | 24 | 190 | 8.0 | 17.7 | 0.00 | 0.00 | 0.00 | 37 | 1008.9 |
| 20260504212014 | 24 | 182 | 8.0 | 16.1 | 0.00 | 0.00 | 0.00 | 38 | 1008.9 |
| 20260504211014 | 24 | 183 | 6.4 | 11.3 | 0.00 | 0.00 | 0.00 | 37 | 1008.6 |
| 20260504210015 | 25 | 219 | 6.4 | 14.5 | 0.00 | 0.00 | 0.00 | 35 | 1008.6 |
| 20260504205013 | 25 | 222 | 8.0 | 16.1 | 0.00 | 0.00 | 0.00 | 35 | 1008.6 |
| 20260504204015 | 25 | 215 | 6.4 | 12.9 | 0.00 | 0.00 | 0.00 | 34 | 1008.6 |
| 20260504203014 | 25 | 223 | 8.0 | 22.5 | 0.00 | 0.00 | 0.00 | 35 | 1008.8 |
| 20260504202014 | 25 | 234 | 9.7 | 19.3 | 0.00 | 0.00 | 0.00 | 35 | 1009.1 |
| 20260504201014 | 25 | 291 | 8.0 | 25.7 | 0.00 | 0.00 | 0.00 | 34 | 1009.2 |
| 20260504200014 | 25 | 252 | 8.0 | 17.7 | 0.00 | 0.00 | 0.00 | 35 | 1009.2 |
| 20260504195014 | 25 | 301 | 11.3 | 32.2 | 0.00 | 0.00 | 0.00 | 34 | 1009.4 |
| 20260504194014 | 25 | 290 | 8.0 | 20.9 | 0.00 | 0.00 | 0.00 | 35 | 1009.7 |
| 20260504193014 | 25 | 190 | 8.0 | 17.7 | 0.00 | 0.00 | 0.00 | 37 | 1009.7 |
| 20260504192014 | 24 | 283 | 11.3 | 32.2 | 0.00 | 0.00 | 0.00 | 35 | 1009.9 |
| 20260504191015 | 24 | 238 | 9.7 | 24.1 | 0.00 | 0.00 | 0.00 | 36 | 1010.0 |
| 20260504190015 | 24 | 204 | 9.7 | 24.1 | 0.00 | 0.00 | 0.00 | 35 | 1010.3 |
| 20260504185014 | 23 | 235 | 12.9 | 29.0 | 0.00 | 0.00 | 0.00 | 37 | 1010.4 |
| 20260504184014 | 24 | 272 | 9.7 | 22.5 | 0.00 | 0.00 | 0.00 | 35 | 1010.7 |
| 20260504183014 | 24 | 213 | 9.7 | 24.1 | 0.00 | 0.00 | 0.00 | 36 | 1010.7 |
| 20260504182014 | 23 | 299 | 9.7 | 16.1 | 0.00 | 0.00 | 0.00 | 37 | 1010.8 |
| 20260504181014 | 24 | 175 | 8.0 | 16.1 | 0.00 | 0.00 | 0.00 | 35 | 1010.9 |